Luverne, MN

5:44 PM CST on February 05, 2016 (GMT -0600)
Luverne

Weather History for KLYV - November, 2012

Change the Weather History Date:

Saturday, November 17, 2012

  Actual Average (KFSD) Record (KFSD)
Temperature  
Mean Temperature 45 °F 32 °F  
Max Temperature 57 °F 42 °F 68 °F (1953)
Min Temperature 33 °F 22 °F -7 °F (1959)
Degree Days  
Heating Degree Days 20 33  
Month to date heating degree days 486  
Since 1 July heating degree days 1226  
Cooling Degree Days 0 0  
Month to date cooling degree days 0  
Year to date cooling degree days 690  
Moisture  
Dew Point 33 °F    
Average Humidity 68    
Maximum Humidity 93    
Minimum Humidity 41    
Precipitation  
Precipitation 0.00 in 0.05 in 0.80 in (1958)
Month to date precipitation 0.79  
Year to date precipitation 25.12  
Snow  
Snow 0.00 in 0.30 in 4.00 in (1986)
Month to date snowfall 3.4  
Since 1 July snowfall 4.7  
Since 1 September snowfall 4.7  
Snow Depth -    
Sea Level Pressure  
Sea Level Pressure 30.14 in    
Wind  
Wind Speed 12 mph (South)    
Max Wind Speed 25 mph    
Max Gust Speed 34 mph    
Visibility 9 miles    
Events      
T = Trace of Precipitation, MM = Missing Value Source: NWS Daily Summary

Daily Weather History Graph

Daily Weather History Graph

Search for Another Location

Airport or City:

Trip Planner

Search our weather history database for the weather conditions in past years. The results will help you decide how hot, cold, wet, or windy it might be!

Date:

Astronomy

Nov. 17, 2012 Rise Set
Actual Time 7:22 AM CST 4:57 PM CST
Civil Twilight 6:50 AM CST 5:28 PM CST
Nautical Twilight 6:16 AM CST 6:03 PM CST
Astronomical Twilight 5:42 AM CST 6:37 PM CST
Moon 11:07 AM CST (11/17) 9:09 PM CST (11/17)
Length of Visible Light 10h 37m
Length of Day
9h 35m
Waxing Crescent, 20% of the Moon is Illuminated
Nov 17
Waxing Crescent
Nov 20
First Quarter
Nov 28
Full
Dec 6
Last Quarter
Dec 13
New

Hourly Weather History & Observations

Time (CST) Temp. Windchill Dew Point Humidity Pressure Visibility Wind Dir Wind Speed Gust Speed Precip Events Conditions
12:15 AM 35.6 °F 29.2 °F 30.2 °F 81% 30.24 in 10.0 mi SSE 8.1 mph - N/A   Clear
12:35 AM 33.8 °F 25.8 °F 30.2 °F 87% 30.23 in 10.0 mi SSE 10.4 mph - N/A   Clear
12:54 AM 35.6 °F 28.0 °F 30.2 °F 81% 30.23 in 10.0 mi SSE 10.4 mph - N/A   Clear
1:15 AM 35.6 °F 28.0 °F 32.0 °F 87% 30.22 in 10.0 mi South 10.4 mph - N/A   Clear
1:35 AM 35.6 °F 27.5 °F 30.2 °F 81% 30.22 in 10.0 mi South 11.5 mph - N/A   Clear
1:54 AM 35.6 °F 27.1 °F 32.0 °F 87% 30.22 in 10.0 mi South 12.7 mph - N/A   Clear
2:15 AM 33.8 °F 25.3 °F 30.2 °F 87% 30.21 in 10.0 mi South 11.5 mph - N/A   Clear
2:35 AM 33.8 °F 25.8 °F 30.2 °F 87% 30.22 in 10.0 mi South 10.4 mph - N/A   Clear
2:54 AM 33.8 °F 27.0 °F 30.2 °F 87% 30.22 in 10.0 mi South 8.1 mph - N/A   Clear
3:15 AM 33.8 °F 27.0 °F 30.2 °F 87% 30.21 in 7.0 mi South 8.1 mph - N/A   Clear
3:35 AM 33.8 °F 26.4 °F 30.2 °F 87% 30.21 in 7.0 mi South 9.2 mph - N/A   Clear
3:54 AM 33.8 °F 26.4 °F 30.2 °F 87% 30.20 in 7.0 mi South 9.2 mph - N/A   Clear
4:15 AM 33.8 °F 26.4 °F 32.0 °F 93% 30.20 in 7.0 mi South 9.2 mph - N/A   Clear
4:34 AM 33.8 °F 27.0 °F 32.0 °F 93% 30.19 in 7.0 mi South 8.1 mph - N/A   Clear
4:55 AM 33.8 °F 27.0 °F 32.0 °F 93% 30.19 in 7.0 mi South 8.1 mph - N/A   Clear
5:15 AM 33.8 °F 26.4 °F 32.0 °F 93% 30.19 in 7.0 mi South 9.2 mph - N/A   Clear
5:34 AM 33.8 °F 27.0 °F 32.0 °F 93% 30.19 in 7.0 mi South 8.1 mph - N/A   Clear
5:55 AM 33.8 °F 28.6 °F 32.0 °F 93% 30.19 in 7.0 mi SSE 5.8 mph - N/A   Clear
6:15 AM 33.8 °F 28.6 °F 32.0 °F 93% 30.19 in 7.0 mi South 5.8 mph - N/A   Clear
6:34 AM 33.8 °F 26.4 °F 32.0 °F 93% 30.18 in 7.0 mi SSE 9.2 mph - N/A   Clear
6:55 AM 33.8 °F 26.4 °F 32.0 °F 93% 30.18 in 7.0 mi SSE 9.2 mph - N/A   Clear
7:14 AM 35.6 °F 29.2 °F 32.0 °F 87% 30.18 in 7.0 mi South 8.1 mph - N/A   Clear
7:35 AM 35.6 °F 28.0 °F 32.0 °F 87% 30.18 in 10.0 mi SSE 10.4 mph - N/A   Clear
7:54 AM 35.6 °F 28.0 °F 32.0 °F 87% 30.18 in 7.0 mi SSE 10.4 mph - N/A   Clear
8:15 AM 37.4 °F 29.8 °F 32.0 °F 81% 30.19 in 10.0 mi South 11.5 mph - N/A   Clear
8:35 AM 37.4 °F 30.8 °F 32.0 °F 81% 30.19 in 10.0 mi South 9.2 mph - N/A   Clear
8:54 AM 39.2 °F 32.0 °F 32.0 °F 75% 30.18 in 10.0 mi South 11.5 mph - N/A   Clear
9:15 AM 41.0 °F 33.1 °F 32.0 °F 70% 30.18 in 10.0 mi South 15.0 mph 18.4 mph N/A   Clear
9:35 AM 42.8 °F 35.1 °F 33.8 °F 70% 30.18 in 10.0 mi South 16.1 mph - N/A   Clear
9:54 AM 44.6 °F 37.4 °F 33.8 °F 66% 30.18 in 10.0 mi South 16.1 mph 21.9 mph N/A   Scattered Clouds
10:15 AM 44.6 °F 36.9 °F 33.8 °F 66% 30.18 in 10.0 mi South 18.4 mph - N/A   Mostly Cloudy
10:34 AM 46.4 °F 39.0 °F 33.8 °F 62% 30.18 in 10.0 mi South 19.6 mph 23.0 mph N/A   Scattered Clouds
10:55 AM 50.0 °F - 33.8 °F 54% 30.17 in 10.0 mi South 20.7 mph 25.3 mph N/A   Mostly Cloudy
11:15 AM 48.2 °F - 33.8 °F 58% 30.17 in 10.0 mi South 18.4 mph - N/A   Overcast
11:34 AM 50.0 °F - 33.8 °F 54% 30.15 in 10.0 mi South 19.6 mph 25.3 mph N/A   Mostly Cloudy
11:55 AM 51.8 °F - 33.8 °F 50% 30.14 in 10.0 mi South 25.3 mph 31.1 mph N/A   Scattered Clouds
12:15 PM 53.6 °F - 33.8 °F 47% 30.13 in 10.0 mi South 21.9 mph 29.9 mph N/A   Clear
12:34 PM 53.6 °F - 33.8 °F 47% 30.12 in 10.0 mi South 23.0 mph 31.1 mph N/A   Clear
12:55 PM 55.4 °F - 33.8 °F 44% 30.11 in 10.0 mi South 23.0 mph 27.6 mph N/A   Clear
1:15 PM 53.6 °F - 33.8 °F 47% 30.11 in 10.0 mi South 24.2 mph 32.2 mph N/A   Clear
1:34 PM 55.4 °F - 33.8 °F 44% 30.11 in 10.0 mi South 25.3 mph 33.4 mph N/A   Clear
1:55 PM 55.4 °F - 33.8 °F 44% 30.10 in 10.0 mi South 25.3 mph 34.5 mph N/A   Clear
2:15 PM 55.4 °F - 33.8 °F 44% 30.09 in 10.0 mi South 23.0 mph 29.9 mph N/A   Clear
2:34 PM 55.4 °F - 33.8 °F 44% 30.09 in 10.0 mi South 18.4 mph 29.9 mph N/A   Clear
3:14 PM 55.4 °F - 33.8 °F 44% 30.07 in 10.0 mi South 23.0 mph 28.8 mph N/A   Clear
3:35 PM 57.2 °F - 33.8 °F 41% 30.08 in 10.0 mi South 20.7 mph 28.8 mph N/A   Clear
3:55 PM 55.4 °F - 33.8 °F 44% 30.08 in 10.0 mi South 19.6 mph 23.0 mph N/A   Clear
4:14 PM 53.6 °F - 33.8 °F 47% 30.08 in 10.0 mi South 16.1 mph - N/A   Clear
4:35 PM 53.6 °F - 33.8 °F 47% 30.09 in 10.0 mi South 12.7 mph - N/A   Clear
4:54 PM 51.8 °F - 35.6 °F 54% 30.09 in 10.0 mi South 10.4 mph - N/A   Clear
5:14 PM 50.0 °F - 35.6 °F 58% 30.10 in 10.0 mi South 9.2 mph - N/A   Clear
5:35 PM 50.0 °F - 35.6 °F 58% 30.09 in 10.0 mi South 9.2 mph - N/A   Clear
6:14 PM 48.2 °F - 35.6 °F 62% 30.09 in 10.0 mi SSE 9.2 mph - N/A   Clear
6:35 PM 48.2 °F - 35.6 °F 62% 30.09 in 10.0 mi SSE 11.5 mph - N/A   Clear
6:54 PM 48.2 °F - 35.6 °F 62% 30.09 in 10.0 mi SSE 12.7 mph - N/A   Clear
7:15 PM 48.2 °F - 35.6 °F 62% 30.09 in 10.0 mi SSE 11.5 mph - N/A   Clear
7:34 PM 46.4 °F 41.1 °F 33.8 °F 62% 30.09 in 10.0 mi South 11.5 mph - N/A   Clear
7:55 PM 46.4 °F 41.1 °F 33.8 °F 62% 30.10 in 10.0 mi South 11.5 mph 18.4 mph N/A   Clear
8:15 PM 46.4 °F 40.4 °F 33.8 °F 62% 30.09 in 10.0 mi South 13.8 mph 17.3 mph N/A   Clear
8:34 PM 46.4 °F 40.4 °F 33.8 °F 62% 30.10 in 10.0 mi South 13.8 mph - N/A   Clear
8:55 PM 46.4 °F 40.4 °F 32.0 °F 57% 30.09 in 10.0 mi South 13.8 mph 19.6 mph N/A   Clear
9:14 PM 46.4 °F 40.1 °F 32.0 °F 57% 30.09 in 10.0 mi South 15.0 mph 19.6 mph N/A   Clear
9:34 PM 46.4 °F 40.7 °F 32.0 °F 57% 30.09 in 10.0 mi South 12.7 mph - N/A   Clear
9:55 PM 44.6 °F 38.8 °F 32.0 °F 61% 30.09 in 10.0 mi South 11.5 mph - N/A   Clear
10:14 PM 44.6 °F 38.4 °F 32.0 °F 61% 30.09 in 10.0 mi South 12.7 mph - N/A   Clear
10:35 PM 44.6 °F 38.1 °F 32.0 °F 61% 30.08 in 10.0 mi South 13.8 mph - N/A   Clear
10:55 PM 44.6 °F 38.1 °F 32.0 °F 61% 30.08 in 10.0 mi South 13.8 mph - N/A   Clear
11:14 PM 42.8 °F 35.8 °F 32.0 °F 66% 30.08 in 10.0 mi South 13.8 mph - N/A   Clear
11:35 PM 42.8 °F 36.2 °F 32.0 °F 66% 30.09 in 10.0 mi South 12.7 mph - N/A   Clear
11:55 PM 42.8 °F 37.5 °F 32.0 °F 66% 30.08 in 10.0 mi South 9.2 mph - N/A   Clear